FLOCK 4BE-33 (60502 NORAD) Tracking and Keplerian Element Data

This shows tracking and keplerian element data for the satellite.

Feedback or suggestion? Click here.




ElementValue
Catalog60502
NameFLOCK 4BE-33
Epoch Orbit864
Epoch Day286.75722645
Epoch Year2024
RAAN1.4231
Inclination97.435
Eccentricity0.0004724
Argument of Perigee294.7543
Mean Anonmoly65.32
Mean Motion15.19761759
Decay Rate0.00017943
L11 60502U 24149AL 24286.75722645 .00017943 00000+0 84044-3 0 9999
L22 60502 97.4350 1.4231 0004724 294.7543 65.3200 15.19761759 8640



Live tracking and technical data element details for FLOCK 4BE-33 (NORAD 60502). FLOCK 4BE-33 can be tracked NOW for your location showing map with azimuth and elevation plus other details from your city location.







IsCatalogInMostPopularTable: catalog: 60502, numindb: 6
Update: records affected: 1



GetName: 60502 FLOCK 4BE-33

Hit Count: updated at: Tue, 03 Dec 2024 01:57:27 GMT